This demonstration page uses our WeatherBlox Daily Observations layout. Learn more.

Left ArrowRight Arrow

Hourly Observations for March 22, 2021

Temp ( °F °C ) Dew Point ( °F °C ) Humidity (%) Winds ( mph kmh ) Pressure ( in mb ) Visibility ( mi km ) Precip ( " mm )
12:15 am 00:15 Mostly Cloudy 46 8 34 1.2 63 63 N 9 15 30.04 1017 10 16 N/A
12:35 am 00:35 Partly Cloudy 46 7.6 34 1.2 64 64 N 6 9 30.04 1017 10 16 N/A
12:55 am 00:55 Mostly Cloudy 46 7.5 35 1.5 66 66 N 5 7 30.05 1017 10 16 N/A
1:15 am 01:15 Cloudy 45 7 35 1.6 69 69 NNE 6 9 30.04 1017 10 16 N/A
1:35 am 01:35 Cloudy 45 7.3 35 1.6 67 67 NNE 6 9 30.03 1017 10 16 N/A
1:55 am 01:55 Cloudy 45 7.3 35 1.6 67 67 N 3 6 30.04 1017 10 16 N/A
2:15 am 02:15 Cloudy with Light Rain 45 7.4 36 2 69 69 NE 5 7 30.03 1017 10 16 N/A
2:35 am 02:35 Cloudy with Drizzle 45 7.1 36 2.4 72 72 N N/A 30.05 1018 10 16 N/A
2:55 am 02:55 Cloudy with Light Rain 46 7.5 36 2.2 69 69 N N/A 30.04 1017 10 16 N/A
3:15 am 03:15 Cloudy with Light Rain 44 6.9 38 3.3 78 78 NNE 3 6 30.04 1017 10 16 N/A
3:35 am 03:35 Cloudy with Light Rain 44 6.9 38 3.5 79 79 NW 3 6 30.05 1018 10 16 0.01 0.25
3:55 am 03:55 Cloudy with Rain 44 6.6 39 3.7 82 82 NNE 8 13 30.02 1017 10 16 0.02 0.51
4:15 am 04:15 Cloudy with Light Rain 44 6.5 39 3.9 84 84 NNE 8 13 30.02 1017 10 16 0.01 0.25
4:35 am 04:35 Cloudy with Light Rain 44 6.5 39 3.9 84 84 N 6 9 30.02 1017 10 16 0.04 1.02
4:55 am 04:55 Cloudy with Rain 44 6.5 39 4.1 85 85 NNE 7 11 30.01 1016 10 16 0.06 1.52
5:15 am 05:15 Cloudy with Rain 44 6.5 39 4 84 84 NE 6 9 30.02 1017 10 16 0.03 0.76
5:35 am 05:35 Cloudy with Rain 44 6.4 39 4.1 85 85 NE 7 11 30.02 1016 10 16 0.08 2.03
5:55 am 05:55 Cloudy with Rain 44 6.5 39 4 84 84 NE 6 9 30.01 1016 10 16 0.10 2.54
6:15 am 06:15 Cloudy with Light Rain 44 6.5 40 4.2 85 85 NE 5 7 30.01 1016 10 16 0.03 0.76
6:35 am 06:35 Cloudy with Light Rain 43 6.3 40 4.3 87 87 ENE 7 11 30.01 1016 10 16 0.05 1.27
6:55 am 06:55 Cloudy with Light Rain 43 6.1 40 4.5 90 90 NNE 3 6 30.01 1016 10 16 0.07 1.78
7:15 am 07:15 Cloudy with Rain 43 6 40 4.6 91 91 N N/A 30.02 1017 7 11 0.02 0.51
7:35 am 07:35 Cloudy with Light Rain 42 5.8 40 4.7 93 93 N N/A 30.02 1017 10 16 0.04 1.02
7:55 am 07:55 Cloudy with Rain 42 5.8 41 4.8 93 93 SSE 3 6 30.03 1017 7 11 0.07 1.78
8:15 am 08:15 Cloudy with Rain 42 5.7 41 4.9 95 95 N N/A 30.03 1017 5 8 0.03 0.76
8:35 am 08:35 Cloudy with Rain 42 5.5 40 4.7 95 95 NNE 3 6 30.01 1016 7 11 0.06 1.52
8:55 am 08:55 Cloudy with Rain 42 5.5 41 4.8 95 95 NE 7 11 30.00 1016 7 11 0.11 2.79
9:15 am 09:15 Cloudy with Rain 42 5.6 41 5 96 96 NE 7 11 29.99 1016 7 11 0.02 0.51
9:35 am 09:35 Cloudy with Rain 42 5.5 41 4.8 95 95 NE 9 15 29.97 1015 7 11 0.07 1.78
9:55 am 09:55 Cloudy with Light Rain 42 5.5 40 4.7 95 95 NE 10 17 29.98 1015 10 16 0.09 2.29
10:15 am 10:15 Cloudy with Rain 42 5.6 40 4.6 93 93 NE 12 19 29.98 1015 7 11 0.03 0.76
10:35 am 10:35 Cloudy with Light Rain 42 5.5 40 4.4 93 93 ENE 13 20 29.97 1015 7 11 0.07 1.78
10:55 am 10:55 Cloudy with Light Rain 42 5.5 40 4.3 92 92 NE 14 22 29.97 1015 10 16 0.10 2.54
11:15 am 11:15 Cloudy with Rain 42 5.5 40 4.5 93 93 NE 13 20 29.97 1015 7 11 0.03 0.76
11:35 am 11:35 Cloudy with Rain 42 5.5 40 4.5 93 93 ENE 16 26 29.96 1015 10 16 0.06 1.52
11:55 am 11:55 Cloudy with Light Rain 42 5.5 40 4.3 92 92 ENE 17 28 29.95 1014 7 11 0.09 2.29
12:15 pm 12:15 Cloudy with Light Rain 42 5.3 40 4.3 93 93 ENE 16 26 29.95 1014 10 16 0.01 0.25
12:35 pm 12:35 Cloudy with Light Rain 41 5.2 40 4.2 93 93 NE 17 28 29.95 1014 10 16 0.02 0.51
12:55 pm 12:55 Cloudy with Light Rain 41 5.2 40 4.3 94 94 ENE 17 28 29.94 1014 10 16 0.05 1.27
1:15 pm 13:15 Cloudy with Light Rain 41 5.1 39 4.1 93 93 ENE 15 24 29.94 1014 10 16 0.02 0.51
1:35 pm 13:35 Cloudy with Rain 41 5.2 40 4.2 93 93 ENE 15 24 29.92 1013 7 11 0.06 1.52
1:55 pm 13:55 Cloudy with Light Rain 42 5.3 40 4.3 93 93 ENE 18 30 29.91 1013 7 11 0.11 2.79
2:15 pm 14:15 Cloudy with Rain 41 5.1 40 4.2 94 94 NE 16 26 29.88 1012 7 11 0.04 1.02
2:35 pm 14:35 Cloudy with Light Rain 41 5.1 40 4.2 94 94 NE 18 30 29.87 1011 10 16 0.07 1.78
2:55 pm 14:55 Cloudy with Light Rain 41 5.2 40 4.3 94 94 NE 21 33 29.86 1011 10 16 0.09 2.29
3:15 pm 15:15 Cloudy with Rain 42 5.3 40 4.5 95 95 NE 16 26 29.84 1011 10 16 0.03 0.76
3:35 pm 15:35 Cloudy with Rain 41 5.2 40 4.5 95 95 NE 17 28 29.85 1011 5 8 0.08 2.03
3:55 pm 15:55 Cloudy with Rain 42 5.3 40 4.5 95 95 NE 20 31 29.85 1011 5 8 0.14 3.56
4:15 pm 16:15 Cloudy with Rain 41 5.1 39 3.9 92 92 NE 17 28 29.86 1011 5 8 0.06 1.52
4:35 pm 16:35 Cloudy with Rain 41 4.8 38 3.5 91 91 NNE 16 26 29.86 1011 4 6 0.13 3.30
4:55 pm 16:55 Cloudy with Rain 40 4.6 38 3.5 93 93 NNE 15 24 29.86 1011 5 8 0.18 4.57
5:15 pm 17:15 Cloudy with Light Rain 40 4.4 37 3 91 91 NE 20 31 29.86 1011 5 8 0.04 1.02
5:35 pm 17:35 Cloudy with Light Rain 39 4 37 2.7 91 91 NE 23 37 29.87 1011 7 11 0.07 1.78
5:55 pm 17:55 Cloudy with Light Rain 39 3.7 37 2.5 92 92 NNE 18 30 29.86 1011 10 16 0.09 2.29
6:15 pm 18:15 Cloudy with Rain 38 3.4 36 2.2 92 92 NNE 18 30 29.85 1011 10 16 0.01 0.25
6:35 pm 18:35 Cloudy with Light Rain 38 3.2 36 2.1 93 93 NNE 17 28 29.85 1011 10 16 0.02 0.51
6:55 pm 18:55 Cloudy with Light Rain 37 3 36 2 93 93 NNE 21 33 29.85 1011 10 16 0.02 0.51
7:15 pm 19:15 Cloudy 37 3 36 2.1 94 94 N 16 26 29.85 1011 10 16 N/A
7:35 pm 19:35 Cloudy with Drizzle 37 2.8 36 2 95 95 N 18 30 29.85 1011 10 16 N/A
7:55 pm 19:55 Cloudy with Drizzle 37 2.6 35 1.8 95 95 NNE 21 33 29.85 1011 10 16 N/A
8:15 pm 20:15 Cloudy with Drizzle 36 2.3 35 1.5 95 95 N 18 30 29.83 1010 10 16 N/A
8:35 pm 20:35 Cloudy with Light Rain 36 2.1 35 1.5 96 96 N 20 31 29.83 1010 10 16 N/A
8:55 pm 20:55 Cloudy with Drizzle 36 2.1 35 1.5 96 96 NNE 21 33 29.83 1010 10 16 N/A
9:15 pm 21:15 Cloudy with Drizzle 36 2.1 35 1.5 96 96 NNE 21 33 29.82 1010 10 16 N/A
9:35 pm 21:35 Cloudy 36 2.1 35 1.5 96 96 N 17 28 29.82 1010 10 16 N/A
9:55 pm 21:55 Cloudy with Drizzle 36 2.2 35 1.6 96 96 N 18 30 29.82 1010 10 16 N/A
10:15 pm 22:15 Cloudy with Light Rain 36 2.3 35 1.7 96 96 NNE 16 26 29.82 1010 10 16 N/A
10:35 pm 22:35 Cloudy with Rain 37 2.5 36 2 97 97 N 14 22 29.81 1009 10 16 N/A
10:55 pm 22:55 Cloudy with Rain 37 2.6 36 2.1 97 97 N 15 24 29.80 1009 7 11 N/A
11:15 pm 23:15 Cloudy with Light Rain 37 2.6 36 2.1 97 97 N 16 26 29.79 1009 5 8 0.01 0.25
11:35 pm 23:35 Cloudy with Rain 37 2.6 36 2.1 97 97 N 15 24 29.79 1009 7 11 0.01 0.25
11:55 pm 23:55 Cloudy with Drizzle 37 2.6 36 2.1 97 97 N 15 24 29.78 1008 10 16 0.01 0.25

Powered by AerisWeather